[[{"header":{"parameterUnit":"m.s-1","parameterCategory":1,"la1":30.2991,"la2":30.254,"lo1":-89.0895,"lo2":-89.0444,"dy":0.0017,"dx":0.0017,"nx":28,"ny":28,"refTime":"2024-03-29T03:00:00:Z","depth":0,"parameterNumber":2,"parameterNumberName":"U-component_of_WINDS"},"data":[0,0,0,0,0,0,0,0,0,0,0,0,0,0,0,0,0,0,0,0,0,0,0,0,0,0,0,0,0,0,0,0,0,0,0,0,0,0,0,0,0,0,0,0,0,0,0,0,0,0,0,0,0,0,0,0,0,0,-2.2159,-2.2159,0,-2.2172,-2.2172,-2.2172,-2.2149,-2.2148,-2.2147,-2.2146,-2.216,-2.2161,-2.2162,0,0,0,0,0,0,0,0,0,0,0,0,0,-2.2115,-2.2116,-2.2159,-2.2159,-2.2159,-2.2172,-2.2172,-2.2172,-2.2149,-2.2148,-2.2147,-2.2146,-2.2159,-2.216,-2.2162,0,0,0,0,0,0,0,0,0,0,0,0,0,-2.2131,-2.2116,-2.2159,-2.2149,-2.2148,-2.2172,-2.2172,-2.2172,-2.2149,-2.2148,-2.2147,-2.2146,-2.2159,-2.216,-2.2162,-2.2195,0,0,-2.2167,-2.2168,0,0,0,0,0,0,0,0,-2.213,-2.2133,-2.215,-2.215,-2.2149,-2.2157,-2.2161,-2.218,-2.2149,-2.2149,-2.2146,-2.2145,-2.216,-2.2161,-2.2166,-2.2196,-2.2196,-2.2167,-2.2168,-2.2169,-2.2169,0,0,0,0,0,0,0,-2.2129,-2.2132,-2.2164,-2.2151,-2.215,-2.2144,-2.2145,-2.2164,-2.2161,-2.2149,-2.2147,-2.2149,-2.2159,-2.2165,-2.2166,-2.2196,-2.2167,-2.2168,-2.2169,-2.217,-2.2253,-2.2255,0,0,0,0,0,0,-2.2129,-2.2132,-2.2164,-2.2164,-2.2137,-2.2146,-2.2147,-2.2156,-2.216,-2.216,-2.215,-2.2148,-2.2162,-2.2164,-2.2167,-2.2205,-2.2169,-2.217,-2.2171,-2.2252,-2.2254,-2.2255,0,0,0,0,0,0,-2.2129,-2.2132,-2.2163,-2.2147,-2.2151,-2.2148,-2.2158,-2.2157,-2.2162,-2.2161,-2.216,-2.2156,-2.2162,-2.2164,-2.2188,-2.2205,-2.2171,-2.2172,-2.2251,-2.2253,-2.2254,-2.2282,0,0,0,0,0,0,-2.2127,-2.2132,-2.2145,-2.2148,-2.2152,-2.2184,-2.2159,-2.2158,-2.2165,-2.2162,-2.2167,-2.2167,-2.2161,-2.2186,-2.219,-2.2207,-2.2174,-2.2249,-2.2251,-2.2254,-2.228,-2.2285,-2.2289,0,0,0,0,0,-2.2126,-2.2152,-2.2145,-2.2149,-2.2167,-2.2185,-2.2187,-2.218,-2.2167,-2.2179,-2.2178,-2.2166,-2.2203,-2.2188,-2.2193,-2.221,-2.2248,-2.2251,-2.2254,-2.2278,-2.2284,-2.2289,0,0,0,0,0,0,-2.2151,-2.2153,-2.2145,-2.2173,-2.2179,-2.2181,-2.2197,-2.2187,-2.2197,-2.2195,-2.2186,-2.2187,-2.2212,-2.2214,-2.2198,-2.2243,-2.2223,-2.2227,-2.224,-2.2246,-2.2251,-2.2249,-2.2175,0,0,0,0,0,-2.216,-2.2174,-2.2175,-2.22,-2.2203,-2.22,-2.2207,-2.2201,-2.2207,-2.221,-2.2211,-2.2217,-2.223,-2.2238,-2.225,-2.2281,-2.2281,-2.2295,-2.23,-2.2304,-2.2307,-2.2322,-2.2328,-2.2264,-2.2264,-2.2264,0,0,-2.2179,-2.2181,-2.2191,-2.2205,-2.2209,-2.2224,-2.2202,-2.2219,-2.2229,-2.2212,-2.2234,-2.2235,-2.2242,-2.2269,-2.2281,-2.2271,-2.2325,-2.2307,-2.231,-2.2311,-2.2326,-2.2332,-2.2337,-2.2266,-2.2266,-2.2265,0,0,-2.2219,-2.2223,-2.2244,-2.2248,-2.2255,-2.2252,-2.2257,-2.2261,-2.2261,-2.2283,-2.227,-2.2283,-2.2306,-2.231,-2.2316,-2.2359,-2.2348,-2.2363,-2.2388,-2.2403,-2.2408,-2.2412,-2.2427,-2.2432,-2.2367,-2.2367,-2.2367,0,-2.2241,-2.2263,-2.2256,-2.2273,-2.228,-2.2265,-2.2286,-2.2291,-2.2301,-2.2305,-2.2295,-2.2322,-2.2326,-2.2353,-2.2364,-2.2369,-2.2374,-2.2362,-2.2408,-2.2412,-2.2416,-2.243,-2.2435,-2.2368,-2.2368,-2.2368,-2.2368,0,-2.2289,-2.2305,-2.2321,-2.233,-2.2339,-2.2358,-2.2354,-2.2363,-2.2357,-2.2356,-2.2378,-2.2382,-2.2394,-2.24,-2.2395,-2.2427,-2.2421,-2.2409,-2.2389,-2.2424,-2.2437,-2.2442,-2.2371,-2.237,-2.237,-2.2369,0,0,-2.2345,-2.2351,-2.2357,-2.2361,-2.2367,-2.2379,-2.2398,-2.2409,-2.2417,-2.2425,-2.244,-2.2459,-2.2449,-2.2455,-2.245,-2.2463,-2.2496,-2.245,-2.245,-2.2457,-2.2531,-2.2539,-2.2545,-2.249,-2.2491,-2.2491,-2.253,0,-2.2385,-2.2417,-2.2411,-2.2441,-2.2455,-2.2442,-2.2458,-2.2463,-2.2463,-2.2475,-2.2474,-2.2488,-2.2473,-2.2476,-2.249,-2.2489,-2.2511,-2.2487,-2.2503,-2.2503,-2.25,-2.2552,-2.256,-2.2597,-2.2535,-2.2536,-2.2537,0,-2.2435,-2.2444,-2.2477,-2.248,-2.2486,-2.25,-2.251,-2.2522,-2.2528,-2.2527,-2.2534,-2.2526,-2.2544,-2.2525,-2.255,-2.2534,-2.254,-2.2541,-2.2543,-2.2543,-2.2521,-2.2552,-2.2608,-2.2613,-2.2545,-2.2544,-2.2544,0,-2.2472,-2.2492,-2.2514,-2.2518,-2.2523,-2.2533,-2.2536,-2.2541,-2.2548,-2.2557,-2.2562,-2.2573,-2.2579,-2.2588,-2.2583,-2.257,-2.2609,-2.259,-2.2608,-2.2608,-2.2615,-2.2614,-2.2672,-2.2622,-2.2622,-2.2622,-2.2621,0,-2.2516,-2.2536,-2.253,-2.2543,-2.2565,-2.2558,-2.258,-2.2581,-2.2586,-2.2599,-2.2589,-2.2601,-2.2595,-2.2607,-2.2604,-2.2624,-2.2627,-2.2626,-2.2625,-2.2627,-2.2627,-2.263,-2.2626,-2.2623,-2.2623,-2.2622,-2.2622,0,-2.2559,-2.2557,-2.2579,-2.2582,-2.2583,-2.2599,-2.2602,-2.2614,-2.2613,-2.263,-2.2633,-2.2631,-2.2645,-2.2642,-2.2657,-2.2655,-2.268,-2.2676,-2.2678,-2.2677,-2.2694,-2.2692,-2.2755,-2.2762,-2.2708,-2.2709,-2.2709,0,-2.2587,-2.2602,-2.2607,-2.2614,-2.2618,-2.2631,-2.2638,-2.2632,-2.2641,-2.2649,-2.266,-2.2673,-2.2682,-2.2705,-2.2705,-2.2716,-2.2712,-2.2733,-2.2713,-2.2714,-2.2711,-2.2709,-2.271,-2.2736,-2.2737,-2.2738,-2.2738,0,-2.2636,-2.2634,-2.2645,-2.2656,-2.2664,-2.2673,-2.268,-2.2687,-2.2682,-2.2691,-2.2705,-2.2713,-2.2728,-2.274,-2.2751,-2.2754,-2.2745,-2.2744,-2.2749,-2.275,-2.275,-2.2749,-2.2687,-2.2743,-2.2742,-2.2742,-2.2742,-2.2741,-2.2672,-2.2684,-2.2689,-2.2702,-2.2706,-2.2713,-2.2725,-2.2725,-2.2736,-2.2748,-2.2744,-2.276,-2.2765,-2.2779,-2.2783,-2.2795,-2.2787,-2.2794,-2.2795,-2.2797,-2.2798,-2.2749,-2.2797,-2.2797,-2.2797,-2.2796,-2.2796,0,-2.272,-2.2722,-2.2734,-2.2744,-2.2754,-2.2745,-2.2752,-2.2761,-2.2774,-2.278,-2.279,-2.2806,-2.2818,-2.2819,-2.2831,-2.284,-2.2836,-2.2843,-2.2842,-2.2842,-2.2805,-2.28,-2.2846,-2.2846,-2.2846,-2.2846,-2.2846,-2.2846,-2.2746,-2.2766,-2.2764,-2.2787,-2.2789,-2.2804,-2.2809,-2.2815,-2.2819,-2.2837,-2.2847,-2.2848,-2.2852,-2.2864,-2.2874,-2.2874,-2.2879,-2.2887,-2.2885,-2.285,-2.2845,-2.284,-2.2835,-2.2888,-2.2888,-2.2921,-2.2922,-2.2922]},{"header":{"parameterUnit":"m.s-1","parameterCategory":1,"la1":30.2991,"la2":30.254,"lo1":-89.0895,"lo2":-89.0444,"dy":0.0017,"dx":0.0017,"nx":28,"ny":28,"refTime":"2024-03-29T03:00:00:Z","depth":0,"parameterNumber":3,"parameterNumberName":"V-component_of_WINDS"},"data":[0,0,0,0,0,0,0,0,0,0,0,0,0,0,0,0,0,0,0,0,0,0,0,0,0,0,0,0,0,0,0,0,0,0,0,0,0,0,0,0,0,0,0,0,0,0,0,0,0,0,0,0,0,0,0,0,0,0,3.3239,3.324,0,3.3321,3.3322,3.3323,3.3334,3.3333,3.3333,3.3332,3.3414,3.3417,3.3419,0,0,0,0,0,0,0,0,0,0,0,0,0,3.3089,3.3091,3.3239,3.324,3.3241,3.3321,3.3322,3.3323,3.3334,3.3333,3.3332,3.3332,3.3413,3.3416,3.342,0,0,0,0,0,0,0,0,0,0,0,0,0,3.3161,3.3092,3.3238,3.3256,3.3258,3.3321,3.3322,3.3324,3.3335,3.3333,3.3332,3.3331,3.3412,3.3416,3.342,3.347,0,0,3.3433,3.3435,0,0,0,0,0,0,0,0,3.3157,3.3166,3.3252,3.3255,3.3258,3.3316,3.3299,3.3373,3.3335,3.3306,3.3332,3.3331,3.3382,3.3389,3.3407,3.3474,3.3477,3.3434,3.3436,3.3438,3.344,0,0,0,0,0,0,0,3.3152,3.3163,3.3271,3.3254,3.3257,3.3259,3.3268,3.3313,3.3349,3.3308,3.3309,3.3319,3.3383,3.3403,3.3409,3.3479,3.3434,3.3438,3.344,3.3442,3.3592,3.3593,0,0,0,0,0,0,3.3144,3.3158,3.3269,3.3274,3.3203,3.3263,3.3273,3.3299,3.3349,3.3355,3.332,3.3319,3.3396,3.3404,3.3412,3.3474,3.3438,3.3442,3.3445,3.3591,3.3592,3.3594,0,0,0,0,0,0,3.314,3.3153,3.3265,3.3216,3.3231,3.3267,3.3295,3.3301,3.332,3.3358,3.3364,3.3333,3.3395,3.3406,3.3456,3.3477,3.3444,3.3448,3.3589,3.3591,3.3593,3.3599,0,0,0,0,0,0,3.3136,3.3152,3.3172,3.3217,3.3233,3.3309,3.3297,3.3303,3.3328,3.3328,3.3372,3.3378,3.3395,3.3449,3.346,3.3482,3.3452,3.3587,3.359,3.3592,3.3597,3.3601,3.3604,0,0,0,0,0,3.3131,3.3169,3.3173,3.3186,3.3259,3.331,3.3319,3.3339,3.3329,3.3349,3.3374,3.3376,3.3473,3.3454,3.3467,3.3491,3.3586,3.3589,3.3592,3.3595,3.36,3.3604,0,0,0,0,0,0,3.3125,3.3175,3.318,3.3234,3.3268,3.3312,3.3337,3.3343,3.3379,3.3378,3.34,3.341,3.3459,3.348,3.3458,3.3542,3.3529,3.3534,3.3527,3.3532,3.3535,3.3529,3.3455,0,0,0,0,0,3.313,3.3168,3.321,3.3254,3.3271,3.3301,3.3324,3.3337,3.3372,3.3386,3.3414,3.3447,3.3485,3.3509,3.3546,3.36,3.361,3.3623,3.3626,3.3629,3.3634,3.3664,3.3671,3.3604,3.3604,3.3604,0,0,3.314,3.3173,3.3195,3.3253,3.3281,3.3319,3.3313,3.3353,3.3382,3.3391,3.3441,3.3463,3.3502,3.3554,3.3579,3.3573,3.3655,3.3633,3.3635,3.3638,3.3668,3.3675,3.368,3.3606,3.3606,3.3605,0,0,3.318,3.3208,3.3248,3.3276,3.3319,3.3339,3.3348,3.3392,3.3407,3.3458,3.3466,3.35,3.3565,3.3592,3.3615,3.3666,3.367,3.3678,3.3696,3.3726,3.3731,3.3736,3.3755,3.3761,3.3682,3.3682,3.3682,0,3.3187,3.3246,3.3268,3.3309,3.3334,3.3346,3.3387,3.3413,3.3464,3.3481,3.3475,3.3557,3.3584,3.3644,3.3656,3.3674,3.3686,3.3672,3.3729,3.3734,3.3739,3.3757,3.3764,3.3683,3.3683,3.3683,3.3682,0,3.3254,3.3295,3.3322,3.3373,3.3401,3.3442,3.3469,3.3496,3.3506,3.3527,3.3579,3.3612,3.3656,3.3671,3.3681,3.3732,3.3728,3.3725,3.3712,3.3745,3.3763,3.377,3.3684,3.3683,3.3683,3.3683,0,0,3.3291,3.3354,3.3364,3.3388,3.3436,3.3467,3.3508,3.3553,3.3575,3.3611,3.3646,3.3701,3.3699,3.3725,3.3738,3.3764,3.3803,3.3758,3.3759,3.3766,3.3863,3.3865,3.3872,3.3807,3.3808,3.3809,3.386,0,3.3336,3.341,3.3432,3.3494,3.3533,3.3545,3.3581,3.3614,3.3635,3.367,3.3693,3.3732,3.3726,3.3742,3.3768,3.3793,3.3823,3.379,3.3839,3.3841,3.3829,3.3881,3.3883,3.3929,3.3866,3.3868,3.3868,0,3.3398,3.3436,3.3503,3.3547,3.3564,3.3596,3.3639,3.3672,3.371,3.3724,3.3753,3.3765,3.3808,3.3793,3.3853,3.383,3.3851,3.3867,3.3869,3.3874,3.3856,3.3888,3.3945,3.3951,3.3879,3.3878,3.3878,0,3.3418,3.3486,3.3536,3.3555,3.3608,3.363,3.3653,3.369,3.3716,3.3753,3.377,3.3812,3.3835,3.3867,3.3889,3.3876,3.3947,3.3934,3.3959,3.3959,3.3973,3.3972,3.4034,3.3987,3.3987,3.3987,3.3987,0,3.3466,3.3507,3.3546,3.3576,3.3622,3.3646,3.3691,3.3714,3.3747,3.3782,3.3794,3.3827,3.3854,3.389,3.3908,3.3955,3.3965,3.3977,3.3981,3.3976,3.3974,3.399,3.3988,3.3989,3.3989,3.3988,3.3988,0,3.3497,3.3525,3.3579,3.3625,3.3638,3.3669,3.3708,3.3738,3.376,3.3804,3.3816,3.385,3.3893,3.3918,3.3972,3.3984,3.4037,3.4039,3.4024,3.4026,3.405,3.4048,3.4125,3.4136,3.4081,3.4082,3.4082,0,3.3526,3.3557,3.3607,3.3632,3.3656,3.3695,3.3722,3.3747,3.3774,3.3821,3.3845,3.3889,3.3926,3.3994,3.4023,3.4065,3.4069,3.4093,3.4075,3.4069,3.4069,3.4067,3.4071,3.4095,3.4096,3.4096,3.4097,0,3.3574,3.3587,3.3625,3.3669,3.3701,3.3736,3.3771,3.3791,3.3822,3.3852,3.3897,3.3925,3.3981,3.4025,3.407,3.4092,3.41,3.4102,3.4111,3.4105,3.4095,3.4102,3.4033,3.41,3.41,3.41,3.4099,3.4099,3.3605,3.3634,3.3674,3.3717,3.3746,3.3779,3.381,3.3836,3.3874,3.3923,3.3935,3.3982,3.402,3.4081,3.4105,3.4142,3.4138,3.415,3.4153,3.4155,3.4156,3.409,3.415,3.415,3.415,3.415,3.415,0,3.3654,3.3681,3.372,3.377,3.3804,3.3809,3.3848,3.3876,3.3918,3.3953,3.3989,3.4041,3.4084,3.4117,3.4161,3.4184,3.4189,3.4195,3.4193,3.4199,3.4157,3.4146,3.4191,3.4191,3.4191,3.4191,3.4191,3.4191,3.3684,3.3734,3.3751,3.3816,3.3842,3.3889,3.3912,3.3942,3.397,3.4028,3.4064,3.4086,3.4121,3.4167,3.4207,3.4216,3.4231,3.4237,3.4246,3.4206,3.4202,3.4197,3.4187,3.424,3.424,3.4285,3.4285,3.4285]}]]